RH
54 55 54 52 48 46 45 45 45 44 44 42 40 38 37 36 36 35 35 35 36 37 35 32 29 27 25 23 22 22 23 23 22 20 19 19 21 25 30 34 39 42 40 37 35 32 29 27 24 24 23 21 20 20 18 17 19 21 25 30 38 51 54 46 42 51 66 61 46 42 38 28 19 15 15 13 14 17 18 17 16 15 13 12 14
59 56 53 50 49 49 51 52 51 49 47 45 44 43 44 45 46 45 44 42 40 39 36 32 29 26 25 23 22 21 21 21 21 21 20 18 18 18 21 25 30 37 40 40 38 35 33 30 27 26 24 23 22 22 21 19 19 25 33 37 36 41 49 49 45 49 68 68 45 37 41 42 35 20 15 16 13 15 18 19 19 19 18 16 17
58 56 56 57 59 60 60 59 57 55 53 51 50 49 49 48 45 42 38 34 30 28 26 24 22 20 19 19 18 18 18 19 19 20 20 20 19 17 17 18 20 25 32 37 40 39 38 34 31 28 26 25 24 23 24 22 20 24 39 51 51 48 48 56 59 51 54 67 71 65 47 39 45 33 15 12 13 14 15 20 25 26 28 28 24
59 62 66 71 74 73 70 66 62 58 55 53 52 50 47 42 37 34 30 27 24 22 21 20 19 17 17 16 16 15 15 16 17 17 18 18 18 18 17 16 16 17 20 26 33 38 40 39 36 33 29 26 25 25 24 24 24 22 31 49 63 67 59 57 67 63 58 70 85 81 52 33 37 34 23 15 14 20 22 25 33 37 41 43 36
71 76 80 83 82 78 72 66 59 56 55 55 53 48 42 36 31 28 25 23 21 19 18 16 15 13 12 12 12 12 12 12 13 13 14 15 15 16 16 16 15 15 15 16 21 28 35 39 39 38 35 30 27 26 26 25 26 24 24 34 54 76 78 67 67 69 73 80 84 80 63 41 25 18 27 33 26 27 32 34 41 50 55 57 52
90 89 88 85 80 74 67 62 59 59 60 57 50 43 36 32 28 26 23 21 18 15 13 12 10 9 8 8 7 6 7 7 7 8 9 10 11 12 12 13 13 13 14 14 14 17 23 31 37 39 39 36 31 28 27 26 27 26 25 26 35 57 80 85 80 75 81 91 91 81 65 48 32 19 27 42 42 38 40 42 45 56 65 64 58
93 89 84 80 73 67 62 61 63 64 60 52 44 38 33 30 26 23 19 16 13 11 9 8 7 6 5 5 5 5 5 5 5 5 5 6 6 7 8 9 10 11 11 12 13 12 14 19 27 35 38 40 38 33 29 28 28 28 27 27 28 36 56 78 87 86 90 99 99 89 76 62 47 30 22 31 42 39 35 39 43 52 65 67 59
85 80 77 74 71 68 67 68 67 62 53 45 38 33 29 25 20 17 13 10 8 7 6 6 6 6 6 6 7 7 6 5 5 5 5 5 5 5 6 6 6 8 8 9 10 10 11 12 15 23 31 37 39 38 34 30 29 30 30 28 28 33 46 60 70 80 88 96 102 100 96 87 69 47 29 27 36 35 28 30 36 42 50 58 59
81 78 76 74 72 74 75 73 66 56 46 38 32 28 23 18 14 10 7 5 5 6 7 8 9 9 10 10 11 11 11 9 7 7 7 7 6 6 6 6 6 6 7 7 7 8 9 9 10 13 19 27 34 37 38 35 32 31 31 31 30 35 51 62 67 75 80 82 90 98 101 102 97 76 48 32 32 33 30 27 30 38 42 44 52
82 81 79 76 76 78 76 68 58 47 38 31 25 21 15 10 7 5 6 8 10 13 14 13 13 13 13 14 15 17 18 16 14 16 17 17 16 14 12 12 10 9 8 8 8 9 9 9 9 9 10 15 22 30 35 36 35 33 32 33 33 34 48 71 85 90 91 89 88 91 94 97 102 92 61 36 29 29 32 32 33 43 48 48 60
82 79 76 78 80 78 69 58 47 39 31 25 20 13 8 7 9 11 14 16 18 20 20 18 17 16 16 18 21 24 29 33 35 39 42 44 45 44 40 35 31 26 23 20 17 15 13 11 10 9 9 9 11 18 26 31 34 36 34 33 34 34 38 59 87 101 101 100 97 95 96 95 98 98 75 46 31 29 36 41 41 46 55 65 79
78 76 78 82 79 69 57 47 38 31 25 20 13 7 9 16 21 22 20 21 25 28 26 22 21 23 25 30 36 45 53 59 63 68 71 74 76 74 70 65 60 56 51 46 41 33 25 18 14 11 10 10 9 10 15 22 28 34 37 35 33 36 35 40 64 92 103 101 100 100 100 99 99 102 96 74 45 29 34 44 45 46 56 72 88
87 91 89 81 68 54 44 37 30 24 19 14 8 10 23 29 27 24 23 29 35 35 33 35 43 51 57 63 69 75 79 77 78 83 85 84 81 79 77 74 72 72 70 65 59 53 44 34 27 21 14 11 11 11 11 14 20 28 37 40 35 33 36 37 43 66 90 98 100 101 99 100 101 100 102 98 70 39 31 41 48 47 52 67 83
99 97 84 65 51 42 35 29 24 19 16 10 8 21 36 33 26 26 32 40 44 43 48 60 73 83 88 91 93 90 87 85 85 86 85 82 79 78 79 80 80 81 80 75 68 62 58 52 44 37 29 20 15 13 12 13 15 22 31 40 42 35 33 38 39 48 68 84 94 100 99 99 101 100 100 103 92 68 48 47 61 66 60 66 78
95 81 63 48 41 35 28 23 19 17 14 9 12 31 44 36 30 33 41 47 50 54 62 71 79 86 89 90 88 82 77 80 82 80 79 78 79 80 82 85 87 87 85 81 74 66 61 60 57 52 44 36 27 20 15 14 15 18 24 32 41 43 38 36 38 43 56 75 91 97 99 100 100 100 101 102 101 93 77 67 75 82 72 67 75
78 61 48 39 34 28 23 20 17 16 14 9 16 36 48 43 36 38 45 51 56 60 65 70 74 78 80 81 80 75 69 67 69 70 72 75 78 82 87 89 89 88 86 86 86 78 67 63 63 60 55 49 42 34 25 19 17 16 19 25 31 39 43 40 39 40 45 63 82 92 99 102 101 100 100 101 101 100 95 81 71 69 67 65 69
58 46 39 33 27 23 21 19 17 17 15 10 19 39 50 51 45 41 45 50 55 60 64 67 70 72 74 74 74 73 68 65 64 66 68 72 77 81 85 89 90 90 89 91 96 93 79 68 62 59 59 57 53 48 39 29 24 20 17 20 24 30 37 41 42 42 41 47 63 82 99 102 100 101 101 100 101 101 101 95 78 62 58 62 64
45 38 32 26 23 22 20 18 17 17 16 11 21 41 52 54 54 48 45 47 51 55 58 61 64 66 67 66 66 69 70 68 66 66 68 70 75 80 83 86 89 91 91 92 98 97 86 74 65 58 55 56 56 55 50 40 32 26 22 20 20 23 28 35 39 41 43 43 47 64 90 102 101 101 100 100 100 99 100 102 97 84 72 70 70
37 31 26 23 23 22 20 18 17 18 18 15 24 45 57 61 63 60 53 49 48 49 51 54 57 59 58 57 60 67 72 74 72 71 74 76 80 84 86 88 90 91 90 91 96 97 89 81 73 65 58 54 54 55 56 56 47 35 28 24 22 21 22 26 32 36 40 43 43 46 64 86 99 102 100 100 101 100 100 100 101 100 91 84 82
29 24 23 22 22 22 20 19 18 18 19 19 29 49 64 71 75 74 68 62 56 52 51 51 53 54 53 52 56 64 70 73 72 72 74 79 85 86 88 91 92 94 94 93 96 96 91 85 79 74 69 62 60 59 60 65 66 54 40 31 26 23 22 22 25 30 34 39 43 43 46 59 80 95 100 101 100 100 100 100 100 99 95 90 91
24 22 22 22 22 22 20 19 19 19 19 23 36 54 70 80 84 84 83 78 70 63 58 55 54 53 54 53 54 58 62 66 71 74 74 77 80 82 87 92 92 95 97 96 97 98 92 85 81 80 79 75 71 69 66 67 72 72 64 51 39 30 24 21 21 24 29 33 37 41 43 44 54 71 87 98 101 101 100 101 101 96 91 87 88
21 21 21 21 21 21 20 19 20 20 20 25 43 64 79 91 95 94 96 93 84 77 70 64 59 57 58 58 56 55 57 65 71 74 77 77 74 74 82 90 92 95 96 94 97 98 91 85 83 84 85 85 82 79 74 70 72 79 80 73 62 49 33 24 21 20 23 28 32 35 40 43 45 52 63 77 90 99 101 100 101 97 90 86 84
20 21 21 20 21 21 21 19 19 21 20 25 46 72 87 97 101 101 104 100 92 88 82 73 66 62 62 64 64 59 55 58 64 70 78 79 72 71 76 83 92 97 94 93 96 97 91 85 84 89 93 94 91 85 80 75 75 80 85 83 76 66 49 33 25 21 20 22 27 31 33 38 44 49 54 59 69 83 95 100 101 99 93 88 85
20 20 20 20 21 21 21 20 19 21 21 25 48 77 91 97 101 103 103 98 91 86 83 79 75 73 70 67 65 63 58 55 60 69 74 71 70 74 75 78 91 100 97 95 99 100 96 91 88 92 95 96 95 93 91 88 82 80 83 85 84 79 67 51 36 28 24 21 21 26 29 32 39 48 56 59 61 66 77 89 98 101 98 93 88
20 20 20 20 21 21 21 20 20 20 21 27 51 80 93 98 102 103 100 93 85 81 81 83 84 82 79 72 65 65 66 62 60 61 61 65 73 79 78 76 84 93 96 95 97 100 98 96 96 98 98 99 100 101 101 100 95 90 88 87 88 87 81 69 55 41 31 26 22 22 24 28 34 43 54 64 69 70 71 74 82 93 101 100 96
20 21 21 20 20 21 20 20 20 20 21 28 53 83 95 99 102 102 98 89 83 84 86 88 90 87 83 76 68 67 69 66 62 58 57 65 75 77 76 77 79 86 95 96 95 96 97 97 100 104 104 103 104 103 102 102 102 101 99 96 94 94 90 81 70 58 46 35 28 24 23 25 29 39 52 64 73 80 81 79 76 79 90 100 101
22 22 21 20 20 20 20 21 20 20 21 30 57 86 98 98 99 98 92 85 83 87 90 90 94 93 87 80 76 73 71 67 64 61 62 70 75 73 74 78 81 86 94 99 97 97 100 103 105 107 107 104 103 104 102 102 103 104 102 98 95 97 98 92 82 73 63 50 38 31 29 28 28 33 47 65 77 84 88 90 88 81 81 91 99
22 20 20 20 19 19 20 20 20 19 21 34 63 89 96 95 94 88 81 80 83 87 89 91 96 98 93 87 82 78 73 68 64 62 64 70 72 71 76 84 89 91 94 101 104 103 104 106 107 108 107 103 103 104 103 102 104 106 104 100 97 98 100 101 96 88 79 68 55 44 37 36 36 36 44 59 77 88 93 97 100 96 88 86 92
21 21 21 20 20 20 19 19 19 19 22 42 72 90 92 91 88 80 76 81 85 86 88 92 95 94 91 86 83 80 74 68 66 64 63 67 72 78 87 92 92 93 95 98 102 102 101 101 103 105 104 102 99 100 103 103 103 105 104 102 102 100 99 102 103 100 94 85 75 65 54 47 45 45 49 57 69 82 92 98 102 105 103 95 89
21 22 20 20 21 20 19 19 18 19 32 59 81 88 88 87 81 76 80 84 87 89 91 91 88 83 79 76 75 78 77 72 71 72 70 70 76 86 94 95 94 98 99 97 97 99 99 100 103 104 103 101 98 97 99 101 101 103 103 102 103 103 101 102 104 105 103 98 91 85 77 67 58 53 54 61 69 76 82 90 97 102 106 105 95
22 22 20 20 21 20 19 18 17 29 52 74 84 86 86 84 79 80 86 87 89 92 91 85 79 76 76 76 73 76 82 83 83 83 80 79 85 95 102 101 99 101 101 97 96 98 100 101 104 105 104 102 101 101 100 97 97 100 100 99 100 103 103 102 102 104 105 104 99 93 88 83 75 67 62 63 71 79 84 89 95 97 99 101 98
19 19 20 20 19 20 19 16 23 47 71 81 83 85 84 83 84 87 87 87 91 92 87 83 81 80 86 90 87 86 91 94 96 95 92 93 97 102 106 104 101 103 105 102 98 97 97 98 99 100 100 98 96 97 96 94 95 97 97 95 95 98 101 101 102 104 105 106 104 99 94 89 83 78 74 70 72 80 89 94 97 99 100 98 95
17 17 19 18 19 20 15 18 40 66 77 80 83 85 84 85 89 90 88 89 93 92 88 88 89 90 96 101 101 101 100 99 100 101 100 102 102 102 105 106 104 104 106 103 98 96 96 96 95 93 92 91 90 89 88 90 93 92 91 93 94 94 96 98 102 104 104 103 104 103 100 95 88 82 79 76 75 78 87 96 99 100 101 100 98
18 18 17 18 20 16 14 34 63 76 79 84 86 86 91 95 96 95 94 94 94 91 89 94 98 99 100 101 101 102 102 100 100 101 102 102 102 100 102 104 103 103 104 103 102 101 100 97 93 89 87 88 87 85 84 88 93 94 94 98 100 99 97 97 99 103 104 103 104 103 102 99 96 91 84 80 78 75 77 84 92 96 98 100 100
19 17 18 19 16 14 29 59 76 78 84 92 89 89 98 104 103 100 98 95 92 89 89 95 101 101 99 100 101 101 101 100 100 100 100 100 100 101 101 102 102 101 100 102 105 104 100 96 92 89 90 91 91 90 88 90 95 99 101 102 103 102 102 101 100 101 102 102 101 101 101 101 100 98 96 93 89 84 78 74 75 79 85 90 94
18 18 19 16 13 26 54 75 79 84 94 95 91 95 103 105 105 102 100 95 89 86 87 91 94 95 95 97 98 99 100 100 100 100 101 101 101 101 100 100 100 100 100 101 103 100 94 90 89 88 89 89 90 91 91 94 100 103 102 102 102 102 103 103 102 104 104 102 101 101 100 100 100 99 100 100 100 99 94 85 76 69 67 69 74
19 19 16 14 25 51 76 85 89 96 98 94 97 102 103 104 105 105 102 96 89 87 88 88 89 92 94 96 97 100 101 100 101 101 101 101 101 101 101 101 101 101 101 100 97 93 91 92 94 96 96 95 94 93 93 95 100 101 99 100 101 100 101 102 102 104 104 102 103 103 101 101 101 101 100 100 99 97 95 94 92 87 79 69 63
16 13 17 31 56 79 90 92 96 98 97 100 104 102 101 104 104 101 99 96 95 96 97 96 96 98 101 101 101 102 102 102 103 103 103 102 101 100 100 100 100 100 100 100 98 95 91 87 85 83 82 81 83 86 89 94 99 101 101 101 101 100 101 103 104 105 106 105 105 105 104 102 101 100 100 101 101 99 96 95 96 98 95 86 78
14 23 44 69 86 95 97 97 99 99 101 105 104 100 101 103 98 92 90 93 99 103 103 103 103 104 105 106 105 105 104 103 101 98 96 95 96 98 99 98 95 92 89 84 77 68 60 53 49 46 45 46 49 52 56 62 68 72 74 76 76 75 74 75 76 79 82 85 90 95 99 102 103 103 103 102 101 102 101 101 101 99 92 88 92
41 62 84 97 98 96 95 96 98 100 103 104 102 100 101 98 91 86 86 93 102 104 104 106 105 104 105 104 101 99 97 95 95 95 96 96 96 93 88 80 73 67 62 57 51 46 44 41 38 38 38 39 40 42 43 44 46 48 49 51 52 52 52 50 48 46 45 47 52 58 64 72 80 88 95 99 102 102 101 101 101 97 93 94 101
84 93 99 100 97 94 94 97 98 100 103 103 101 101 99 91 85 84 87 95 103 104 102 102 99 97 97 96 95 96 97 98 98 94 87 80 74 67 60 57 56 56 57 57 56 54 52 48 45 43 43 43 44 45 49 54 61 66 68 69 72 74 76 74 67 58 48 41 41 43 46 51 56 60 66 72 79 86 91 92 91 90 91 94 96
99 99 97 95 93 93 98 104 105 104 104 101 100 102 97 87 83 85 90 98 104 103 100 99 98 98 98 97 96 94 89 82 75 67 60 57 58 61 65 68 70 71 71 70 67 64 60 56 53 51 52 54 56 60 68 76 83 87 86 84 86 90 94 96 95 89 74 59 53 51 49 51 54 54 53 52 52 56 61 65 67 68 70 71 70
96 95 92 90 91 95 101 105 105 105 103 101 103 102 93 84 84 88 95 103 105 104 102 101 99 94 86 78 72 66 60 58 58 63 70 77 83 87 90 91 91 90 89 84 78 73 68 64 62 62 63 64 68 78 86 89 91 93 93 90 90 96 98 93 93 96 82 62 55 54 49 46 47 49 49 48 44 42 43 48 53 55 55 55 52
94 91 88 89 94 100 103 103 103 104 104 104 105 98 88 85 87 90 96 102 104 105 104 96 84 73 64 58 56 56 59 67 78 89 96 99 100 100 99 98 97 95 93 89 83 76 69 63 59 59 63 71 80 89 93 94 96 93 82 71 72 90 103 94 85 87 77 56 51 53 50 47 47 48 52 54 55 58 62 62 60 59 60 58 53
91 91 92 96 100 100 99 96 96 101 105 105 100 91 86 88 91 92 96 99 101 101 94 81 71 67 65 64 65 70 78 88 96 102 103 103 103 102 101 100 99 98 97 96 94 88 82 75 67 66 75 87 95 99 99 101 100 85 68 59 56 69 95 103 92 84 75 63 60 61 59 60 61 60 64 69 73 78 82 81 79 80 79 75 73
89 93 96 101 103 98 92 90 94 101 106 103 96 89 89 93 96 96 98 100 97 89 80 77 79 81 80 79 77 81 87 90 92 96 99 100 101 102 103 102 101 101 101 99 99 98 97 97 94 93 98 101 102 103 101 100 94 75 67 75 70 58 71 90 89 78 74 73 74 74 73 74 73 70 75 81 85 88 92 95 97 96 89 84 87
84 90 92 94 93 87 85 89 96 102 103 99 93 90 92 96 97 97 100 98 87 77 80 91 98 96 93 88 84 82 78 72 76 88 97 99 98 97 98 97 97 99 100 101 103 102 99 101 104 105 103 99 97 96 88 87 89 79 70 81 85 68 59 63 63 61 63 65 67 69 71 73 74 79 86 92 95 97 99 100 98 94 90 93 99
83 89 90 87 83 79 79 84 89 94 95 92 91 93 97 99 98 96 97 89 74 72 87 98 99 97 96 89 79 73 65 61 72 88 94 92 92 93 95 96 99 102 101 101 102 100 97 99 101 100 95 89 87 88 86 86 89 82 75 82 90 85 75 67 60 58 62 67 74 79 82 85 89 93 97 100 100 100 100 101 101 99 100 102 102
80 85 85 83 79 77 76 77 78 81 83 86 92 97 99 96 90 84 80 71 64 73 87 90 86 85 87 86 84 79 72 71 82 92 95 95 99 100 95 94 99 103 102 101 100 100 102 104 97 86 80 80 83 88 93 92 85 78 81 90 88 83 85 86 84 83 86 91 96 98 97 98 100 100 101 103 103 102 101 99 96 96 99 100 100
81 86 86 84 81 78 76 74 72 72 75 81 89 94 92 83 72 66 64 61 62 71 77 78 78 74 70 77 89 90 84 81 86 92 95 99 102 96 84 84 91 90 86 92 98 97 100 104 97 84 79 83 88 90 89 91 89 87 94 101 95 85 82 81 83 89 95 99 101 101 101 101 100 101 103 105 105 105 101 93 88 90 96 99 101
83 89 91 89 86 81 76 74 73 74 78 82 87 88 81 67 57 56 61 62 62 65 67 67 67 63 62 74 89 90 83 81 85 92 96 97 96 86 73 78 86 75 62 72 91 97 100 102 100 98 96 94 96 98 96 99 101 98 97 100 101 98 94 89 87 89 91 94 96 98 101 102 100 100 102 103 104 102 94 89 93 98 100 101 102
Wind_Speed
60 61 62 63 64 65 67 68 70 71 73 75 76 78 80 82 84 86 88 89 91 93 95 97 97 98 99 99 99 99 99 99 99 99 98 97 95 93 91 89 88 89 90 90 90 90 90 90 89 89 87 86 85 83 82 81 81 81 80 79 77 75 75 74 74 74 73 75 75 73 71 70 70 69 69 69 69 69 69 69 69 69 69 68 68
61 62 64 65 66 67 69 71 73 75 77 79 81 82 84 86 88 90 92 94 95 97 99 101 102 103 104 105 106 106 106 105 105 104 104 103 102 100 99 96 93 92 93 92 92 92 92 92 92 92 91 89 88 86 85 83 82 82 82 81 81 80 79 77 77 77 76 77 77 77 76 73 71 71 70 69 69 69 69 69 68 68 68 68 68
62 63 64 66 68 70 72 74 77 79 80 83 85 87 89 91 92 94 96 98 99 100 102 104 105 106 107 108 109 109 109 110 109 109 109 109 108 108 106 104 101 98 98 97 95 95 95 95 95 94 94 93 91 89 88 86 84 83 83 83 83 83 82 81 79 79 79 78 78 80 80 76 74 73 72 70 69 70 70 69 68 68 67 67 68
63 64 66 67 70 73 76 78 80 82 84 86 88 90 92 95 96 98 99 101 102 102 103 104 105 106 106 106 106 107 108 108 109 109 110 111 111 111 111 110 108 106 104 102 100 99 97 97 97 97 97 96 95 93 91 90 88 86 85 85 85 84 85 84 83 81 80 80 82 83 82 81 79 74 71 71 70 70 70 69 68 67 66 66 67
65 66 68 71 74 77 79 82 84 86 88 90 92 94 96 98 99 100 101 102 102 103 103 103 102 101 100 99 99 99 100 101 102 103 105 107 109 110 111 112 112 111 109 107 106 104 102 101 99 99 99 99 99 97 95 93 92 90 89 88 87 86 86 86 86 85 83 84 86 86 85 85 82 75 72 73 71 71 70 69 68 68 67 66 66
65 68 71 74 77 80 82 85 86 88 90 92 95 97 98 99 100 100 100 101 100 100 99 98 97 96 94 92 91 90 89 89 90 92 94 96 100 103 106 109 111 111 111 109 108 108 107 105 103 102 101 102 102 101 98 96 95 94 93 92 91 90 89 87 87 86 86 86 87 89 89 87 84 81 79 77 73 72 71 71 70 69 68 68 67
67 70 74 77 80 83 85 86 88 89 91 94 95 97 98 98 98 97 97 97 96 95 94 92 91 89 87 84 83 81 80 79 78 79 80 82 84 88 92 97 101 105 107 107 106 107 108 108 107 106 104 103 104 104 102 100 98 97 96 95 94 93 92 91 90 88 87 86 86 88 89 89 89 87 84 81 78 76 74 73 73 71 70 70 70
72 74 77 80 83 85 87 88 89 91 93 94 95 96 95 94 94 93 93 91 89 86 85 83 81 79 78 75 73 72 71 69 67 66 65 66 68 71 75 80 84 90 95 98 99 101 103 106 108 109 108 107 106 105 105 104 101 100 99 98 97 96 95 94 93 92 91 89 86 85 85 88 90 90 88 85 83 81 78 77 76 75 74 73 72
74 76 79 82 84 86 88 89 90 92 93 93 93 92 91 90 89 88 85 80 76 74 72 71 70 69 68 65 62 60 59 58 56 53 53 54 55 57 60 64 67 72 77 82 86 88 92 98 103 106 108 110 109 108 107 106 105 103 101 101 100 99 97 96 95 94 94 94 92 89 87 87 90 92 92 90 88 85 81 79 77 76 76 75 73
75 78 80 82 84 86 88 89 90 90 90 89 88 87 85 83 81 76 70 66 63 61 61 60 59 58 56 54 51 49 48 47 45 43 44 45 45 46 48 51 54 57 61 66 70 74 79 85 92 99 103 107 110 111 110 109 108 107 105 103 103 102 100 98 96 95 95 95 96 96 95 94 94 97 96 94 91 87 84 81 78 77 76 74 73
77 79 81 83 85 86 86 87 87 87 85 84 82 81 77 71 67 63 59 57 54 51 51 50 48 46 44 43 41 39 38 37 36 36 36 36 36 37 38 40 43 45 48 52 57 62 66 71 78 86 93 99 105 109 110 110 110 110 110 108 106 105 103 101 99 98 97 97 97 98 99 98 98 99 98 96 94 91 86 82 79 77 75 74 74
79 81 82 84 84 84 84 84 84 83 80 77 74 69 64 59 57 55 53 49 46 43 43 40 36 35 34 33 33 32 33 32 32 31 31 32 32 33 34 36 37 39 41 44 47 52 56 59 65 72 79 87 94 102 107 110 112 113 113 113 111 108 106 105 103 101 99 99 99 99 100 100 99 99 99 99 97 94 90 86 82 79 77 75 74
80 82 82 83 83 83 84 83 81 78 74 70 64 57 53 51 49 47 44 41 38 37 35 31 28 29 29 29 30 31 32 32 32 31 31 32 32 33 34 35 36 38 39 41 42 45 47 50 54 60 67 75 82 90 98 104 109 113 114 115 115 112 110 108 106 104 103 101 101 101 101 102 102 102 101 101 100 97 94 89 85 82 79 77 76
82 82 82 82 82 82 82 79 76 72 67 62 55 48 46 45 42 39 37 35 33 31 28 27 27 29 30 31 33 34 34 34 33 32 31 32 33 33 34 35 36 38 39 40 41 42 43 44 47 51 57 63 71 78 86 94 101 107 111 113 115 115 113 111 109 107 105 105 103 102 102 103 104 104 104 103 102 99 96 92 88 85 83 80 78
83 83 82 82 81 80 78 74 70 66 62 57 50 44 41 39 36 35 33 32 30 28 27 28 29 31 32 33 34 35 34 34 33 32 32 32 32 33 33 35 37 39 40 41 42 42 41 42 43 45 48 53 59 67 75 83 90 97 104 108 110 113 114 113 111 108 107 106 106 105 103 102 103 104 105 105 104 101 97 95 94 91 87 85 82
84 83 82 81 79 77 73 70 66 63 59 54 47 42 38 35 33 32 31 30 30 29 30 31 32 33 34 34 34 34 33 33 33 33 32 32 32 32 33 34 36 39 40 41 43 43 42 42 42 43 44 47 50 55 62 70 78 86 93 99 103 106 110 111 111 110 108 107 107 107 105 102 101 102 103 104 105 104 101 99 98 95 91 88 84
83 82 81 79 76 73 69 66 63 61 57 51 46 42 38 34 32 31 30 30 30 31 32 32 33 33 33 33 33 32 32 32 33 33 33 32 32 33 33 34 35 37 39 41 43 45 44 43 42 42 42 43 45 48 52 59 66 73 81 88 94 98 103 107 109 109 108 108 108 108 108 104 100 98 99 99 100 102 101 101 100 98 95 92 88
82 79 78 75 72 69 66 63 60 58 55 50 45 42 39 36 33 31 30 30 31 32 33 33 33 33 33 32 30 30 30 30 31 32 32 32 32 33 33 33 33 34 37 40 43 46 46 44 43 42 41 41 41 43 46 50 56 62 68 76 83 89 95 100 105 107 107 107 108 109 110 108 102 97 95 94 94 93 94 95 96 98 98 97 94
80 78 75 72 69 66 64 62 58 55 53 49 45 42 40 38 36 34 33 31 32 33 34 34 34 34 33 31 29 29 29 30 30 30 31 31 32 31 31 31 31 32 34 37 41 45 46 45 43 41 40 39 39 40 42 44 48 53 59 64 71 78 86 92 98 102 104 105 105 107 110 111 109 103 96 92 90 88 88 88 89 91 94 96 96
79 76 73 70 66 63 61 60 58 54 50 48 45 41 40 39 38 38 37 36 35 35 35 35 35 35 34 32 30 30 30 31 31 31 30 30 30 29 29 29 30 31 32 34 37 42 45 44 43 41 40 39 38 38 39 41 43 46 50 56 61 68 76 83 89 96 100 103 103 104 107 110 111 110 104 98 92 88 86 86 86 86 87 89 91
76 73 71 68 65 61 59 57 56 54 50 47 45 41 40 40 40 40 41 41 41 39 38 37 37 37 36 35 33 31 31 31 31 31 30 29 29 28 26 28 30 30 31 32 34 38 41 43 43 42 41 40 39 38 38 40 41 42 44 48 52 59 66 73 80 87 93 99 101 101 102 105 108 110 110 105 99 92 87 85 85 86 86 86 87
73 71 69 67 64 60 57 55 54 53 50 46 44 42 40 42 43 44 44 45 44 44 43 42 40 39 39 38 37 34 32 31 31 31 30 30 29 27 25 27 29 29 30 32 32 34 38 40 40 41 41 40 39 38 38 38 39 39 40 42 45 50 57 64 71 77 84 91 96 98 98 100 103 106 108 107 104 99 93 87 84 85 86 85 85
70 69 67 65 63 59 56 54 52 51 50 47 44 42 42 43 44 45 46 46 46 45 45 45 43 41 40 40 39 37 34 32 31 31 31 32 30 27 26 26 27 29 30 31 31 32 34 36 37 38 39 39 38 37 36 35 35 36 37 38 40 43 48 55 62 69 75 82 89 93 95 95 98 101 103 105 104 101 98 93 87 84 83 84 84
68 67 66 64 61 57 53 51 49 48 48 46 43 42 42 43 44 45 46 46 45 44 44 45 45 44 43 41 39 38 35 33 32 32 33 32 29 28 28 27 26 28 29 29 29 30 32 33 34 35 36 36 35 34 33 33 33 33 34 36 36 37 40 45 52 59 66 73 80 86 90 92 93 95 97 100 100 99 98 97 93 88 83 82 82
68 66 64 62 59 55 51 48 47 46 46 44 42 41 42 42 43 44 45 46 44 43 43 44 45 46 45 42 39 37 36 35 34 35 34 31 30 31 31 28 27 28 29 29 28 29 30 31 32 34 34 34 33 32 32 32 31 31 32 33 34 34 35 38 43 50 56 64 71 77 83 87 89 91 92 94 95 96 96 96 95 93 88 83 80
68 66 63 61 58 54 49 46 44 44 44 42 40 39 40 40 41 43 45 45 44 44 45 45 45 44 44 41 38 36 36 36 36 36 34 31 31 32 31 28 27 27 28 29 29 29 30 31 32 32 33 33 32 32 32 31 31 31 31 32 32 32 33 34 37 41 46 52 60 67 74 80 84 86 88 89 91 92 93 93 93 94 92 88 83
67 64 61 58 55 51 47 45 43 43 42 40 37 37 38 38 39 41 44 45 46 46 46 44 43 42 42 40 37 35 36 36 35 35 33 32 32 31 29 27 26 26 27 29 29 29 29 30 31 32 32 32 32 32 32 32 31 30 30 30 31 31 32 32 34 36 39 43 48 55 63 70 76 80 82 85 87 88 89 89 90 91 93 93 89
65 62 59 55 52 47 43 41 41 42 41 37 34 34 35 36 38 41 42 45 46 46 44 42 41 40 40 39 36 35 35 36 35 33 31 30 30 28 26 26 26 25 26 27 29 29 29 30 32 33 33 33 33 32 32 32 31 30 29 29 29 30 31 32 32 33 35 37 40 45 51 59 66 72 76 79 81 84 85 86 87 88 90 92 93
63 60 57 54 50 45 40 37 37 39 38 34 31 31 33 36 39 41 42 43 44 43 41 39 38 38 37 36 35 34 34 34 33 31 28 28 28 27 26 25 25 25 25 26 28 29 30 31 32 33 34 34 33 32 32 32 32 31 30 29 29 29 30 31 31 32 33 35 37 39 42 48 55 62 68 72 75 78 81 83 84 85 87 90 92
61 58 54 51 48 43 38 34 33 34 32 29 28 29 32 35 38 40 41 41 40 39 38 37 37 38 37 36 33 32 31 31 31 30 29 28 27 26 26 25 25 24 24 25 27 28 29 30 32 33 33 34 33 32 32 33 32 31 31 30 29 29 30 30 31 32 33 34 35 36 38 41 46 52 59 65 69 72 75 77 80 82 84 86 89
59 56 52 49 45 41 36 33 30 28 25 24 25 28 32 35 37 38 37 37 36 36 36 37 37 37 36 34 31 29 28 28 29 30 30 28 27 26 26 26 25 24 24 25 25 26 28 29 30 31 32 33 32 32 32 32 33 33 32 31 30 30 31 31 31 32 33 33 34 35 37 39 42 46 50 56 62 66 69 72 75 77 80 82 85
56 52 49 45 42 37 33 31 28 23 20 21 24 28 31 33 34 35 34 34 34 34 35 35 34 32 29 26 23 23 23 24 26 28 29 28 27 26 25 25 24 24 24 24 25 26 27 28 28 29 30 31 31 31 31 32 32 33 34 33 32 32 32 32 32 32 33 33 34 34 35 37 40 42 46 49 54 59 64 68 71 74 76 78 80
55 50 46 42 38 33 30 27 24 19 19 22 25 28 31 31 31 31 32 32 32 32 33 31 28 25 21 17 15 16 18 20 22 25 27 27 26 25 24 24 23 23 23 23 24 24 25 26 27 27 28 29 30 30 31 31 32 34 35 34 34 34 33 33 33 33 34 34 34 34 35 36 38 40 42 45 49 53 58 63 68 71 74 75 77
53 48 43 38 33 29 26 23 20 18 20 24 26 28 29 29 29 30 30 29 29 29 29 25 20 17 14 9 8 10 12 14 18 21 24 25 25 23 22 22 21 21 21 21 22 23 23 24 25 25 26 26 27 28 29 30 31 33 34 35 36 35 35 35 35 35 35 35 35 35 35 36 37 37 39 42 45 48 52 57 62 66 69 72 75
51 46 40 34 29 26 22 19 18 20 22 26 27 27 25 26 27 27 27 26 25 25 24 20 14 11 8 4 1 2 5 8 11 15 17 19 20 19 19 19 19 19 18 19 20 21 21 22 23 23 24 24 24 25 26 28 29 31 32 35 36 37 37 38 38 37 36 36 37 37 37 37 37 37 37 39 41 44 48 51 55 59 63 67 71
47 43 38 32 27 23 20 18 20 23 25 27 26 24 23 23 24 24 24 24 23 22 21 17 14 12 10 8 6 4 2 2 5 8 11 13 15 15 15 15 15 15 16 17 18 19 19 19 19 20 20 21 21 22 23 25 26 28 31 34 37 38 39 40 40 39 37 37 38 39 39 39 39 39 40 41 41 42 44 46 49 52 56 60 64
42 37 34 30 25 22 21 21 23 25 26 26 23 21 20 21 22 22 23 22 22 21 20 17 15 14 13 11 9 6 4 2 3 5 7 9 10 11 11 12 13 13 14 14 15 15 15 15 15 16 18 18 19 19 20 21 23 26 29 33 36 38 39 40 39 38 39 40 41 42 42 43 43 44 44 45 46 46 46 46 47 48 51 54 56
36 32 29 26 24 23 23 24 26 27 25 22 20 18 18 19 20 21 22 21 21 21 20 18 16 15 13 11 9 7 5 3 2 2 4 5 7 8 8 9 9 9 9 9 10 11 12 13 14 15 16 16 17 17 18 19 20 23 26 29 32 34 36 37 37 38 39 41 43 44 44 45 45 45 46 48 49 50 50 50 50 50 51 51 52
32 30 27 25 25 25 27 29 28 26 22 20 18 16 16 17 19 21 21 20 20 20 19 18 16 15 13 12 10 8 6 4 3 2 2 2 3 3 3 4 4 5 5 6 7 7 8 8 8 8 8 8 9 10 11 13 15 18 20 22 25 26 28 29 31 33 36 38 39 42 44 45 45 45 47 48 50 52 53 53 54 55 54 53 53
30 29 28 28 28 29 29 29 26 23 21 20 17 15 16 17 20 21 21 19 19 19 18 17 16 15 13 11 10 8 7 7 6 5 4 4 3 2 1 1 1 1 1 0 1 1 1 2 2 2 2 2 3 3 4 5 7 9 10 12 14 15 17 19 21 24 27 30 32 35 38 41 43 45 46 48 50 51 52 54 55 56 56 55 56
32 30 29 30 31 30 29 27 24 23 22 19 16 15 16 18 20 21 19 18 19 19 18 18 16 15 14 12 12 11 10 9 8 7 7 7 7 6 7 7 6 6 5 4 3 3 2 2 3 3 3 3 3 3 2 2 2 4 5 7 9 12 13 15 17 18 20 22 25 28 31 35 39 42 44 46 48 50 52 54 54 54 54 55 56
33 33 32 31 31 29 28 26 25 24 22 19 16 15 17 19 20 19 17 18 19 19 19 18 17 16 14 13 12 11 10 10 10 11 12 13 12 12 11 10 8 6 5 3 2 1 1 1 2 2 2 2 1 1 1 2 3 5 8 10 12 14 16 17 18 18 19 21 23 26 28 30 34 38 40 42 45 47 50 50 49 48 48 50 52
35 35 34 32 30 30 29 27 26 24 21 19 17 17 18 20 19 17 17 18 19 19 18 17 16 15 14 13 12 12 14 16 17 17 17 16 15 13 12 10 9 7 5 3 1 0 1 2 3 3 3 2 2 2 3 4 6 8 10 12 15 17 19 20 21 20 19 20 22 26 28 29 31 33 35 37 38 40 40 40 39 39 40 42 46
37 35 34 33 32 31 30 28 26 23 21 19 18 18 19 19 17 16 17 19 19 18 17 16 15 14 14 15 16 18 20 20 20 18 17 16 15 14 13 11 10 8 6 5 3 2 1 1 1 2 2 2 3 3 3 5 6 7 8 11 14 17 19 20 20 21 20 17 17 19 22 23 24 25 26 26 25 26 27 28 29 30 32 35 39
38 36 35 34 33 32 30 27 26 24 22 20 19 19 19 18 17 17 18 19 19 17 15 14 14 16 17 18 19 20 20 19 18 17 16 16 15 14 12 11 10 9 9 8 7 5 3 2 3 3 3 3 3 3 3 5 6 6 6 8 11 12 13 14 15 17 17 13 11 12 13 14 15 15 15 16 17 19 21 23 25 27 28 29 31
38 36 35 34 33 31 29 28 26 24 22 20 19 19 19 18 18 18 19 19 17 15 14 15 16 18 18 18 19 19 18 18 17 16 15 15 14 13 12 11 11 11 12 11 10 9 6 4 3 3 4 3 2 2 4 5 6 5 5 7 10 9 7 7 9 12 12 10 9 10 11 11 11 12 13 15 17 18 20 21 23 25 25 24 25
38 36 35 34 33 31 29 28 26 24 22 21 20 20 19 18 19 19 19 18 15 15 16 16 17 18 18 17 17 17 17 16 16 15 14 13 12 12 12 13 14 14 12 11 10 10 9 7 4 3 3 2 2 2 4 5 4 4 5 7 8 7 5 2 4 6 7 7 7 8 9 11 13 14 15 16 18 19 20 20 22 24 24 25 27
38 36 35 34 32 30 29 27 26 25 23 22 22 21 20 20 20 20 18 15 14 16 17 17 17 17 16 16 16 15 15 14 13 13 12 12 12 13 13 13 14 12 10 10 10 11 10 9 7 6 5 4 4 4 4 4 3 3 5 6 5 4 4 5 5 6 6 6 6 7 8 10 11 13 13 14 16 18 20 21 23 24 25 27 29
38 35 33 32 30 29 28 28 27 26 25 24 23 22 21 21 21 19 17 16 16 17 16 16 16 16 16 15 14 13 12 12 12 12 11 12 12 12 11 12 11 9 8 10 12 12 11 10 9 9 8 7 7 7 7 6 5 5 6 6 4 3 3 3 3 3 3 4 4 5 6 7 8 8 9 9 10 12 16 19 21 22 22 22 22
37 34 32 30 28 28 28 28 28 27 26 25 24 24 24 23 20 19 19 18 18 16 15 14 14 15 15 15 14 12 12 11 11 11 10 11 11 11 11 11 11 9 11 14 14 12 12 12 11 10 10 10 10 10 10 9 8 7 7 6 5 3 3 4 4 3 2 3 3 4 5 5 7 7 7 7 8 8 10 13 16 16 15 13 11
36 33 30 28 27 28 29 29 29 29 28 28 27 25 24 22 20 20 20 20 18 16 14 13 12 13 14 14 13 12 12 11 11 11 10 11 11 10 10 11 9 9 12 15 15 13 12 11 10 10 10 10 11 12 11 11 10 9 8 8 7 5 3 3 2 2 1 1 1 2 3 4 5 6 5 5 5 5 6 9 12 12 13 14 14
Wind_Direction
290 291 292 292 291 291 291 291 291 290 290 288 287 286 286 285 284 284 283 282 282 280 279 278 276 275 273 271 269 267 266 264 263 261 259 257 254 252 251 250 250 251 252 252 252 250 249 248 247 245 245 244 244 245 245 246 246 246 244 242 241 240 239 239 241 243 244 244 243 240 238 238 239 239 239 240 240 240 240 239 239 239 239 239 238
293 293 293 293 293 293 294 294 293 292 291 290 289 289 288 287 286 285 284 283 282 281 280 278 277 275 274 272 270 268 266 265 263 261 260 259 257 254 252 250 249 249 249 249 250 250 249 248 247 246 245 244 243 243 244 244 245 245 244 243 242 241 240 240 240 241 242 244 244 243 240 238 238 238 238 239 240 240 241 240 240 239 239 239 239
295 295 296 297 297 297 296 295 294 293 292 291 291 290 289 289 288 287 286 285 284 283 281 280 278 276 274 273 271 269 267 265 264 262 260 259 257 256 254 251 249 248 248 247 247 247 248 248 247 246 245 244 243 242 243 243 243 243 243 242 242 241 240 240 239 239 240 242 243 243 243 240 238 237 237 239 240 241 241 240 240 239 238 238 238
298 299 300 300 299 298 297 295 294 293 293 293 293 293 292 291 290 289 288 287 285 284 282 280 279 277 276 274 273 271 269 267 265 263 261 260 258 256 255 253 251 249 248 247 246 244 244 245 246 246 245 243 242 242 242 242 242 242 241 241 241 241 241 240 239 239 238 239 241 242 243 242 239 237 238 238 238 239 239 239 239 238 237 236 237
302 302 302 301 299 298 296 295 295 295 296 297 296 295 294 293 292 291 290 288 287 286 284 283 282 280 278 277 275 273 271 269 267 264 262 261 259 257 256 255 253 251 249 248 246 244 243 242 243 244 244 244 242 241 241 241 242 242 241 240 239 239 240 241 240 239 238 237 239 241 242 243 242 240 238 238 237 237 237 237 237 237 236 236 236
304 303 301 300 298 297 296 297 298 299 300 299 298 297 296 295 294 293 292 291 290 288 287 286 285 283 282 280 278 276 273 271 268 266 263 261 259 257 256 255 254 253 251 250 248 246 244 242 241 241 242 243 243 241 240 240 241 242 242 241 240 239 238 239 240 240 240 239 240 241 242 243 243 241 239 237 237 236 235 235 235 235 236 236 236
302 302 300 299 299 298 299 300 301 302 301 301 300 299 298 297 295 294 293 291 290 290 288 288 287 285 284 282 280 278 275 272 270 267 265 262 260 258 256 254 253 252 251 251 250 248 246 243 241 240 239 240 242 242 240 239 239 240 241 241 240 240 239 237 237 238 240 241 242 244 245 244 243 242 240 237 236 236 235 234 234 233 234 235 236
302 302 301 301 301 302 302 303 303 303 302 302 301 299 298 297 295 294 292 291 291 290 289 288 287 285 284 282 280 278 276 274 271 268 265 262 259 257 256 254 252 251 250 250 250 249 247 245 242 240 239 238 239 240 241 240 238 238 240 240 240 240 240 239 238 237 237 238 240 242 245 246 245 243 241 239 237 237 236 235 234 233 233 234 235
303 303 302 303 303 304 304 304 304 303 303 302 301 299 298 296 294 293 292 291 290 289 287 286 285 284 283 281 278 276 274 273 270 266 262 258 255 254 253 252 251 250 249 248 248 248 247 245 244 242 240 238 238 238 239 240 240 238 238 239 239 238 238 238 238 238 238 238 238 238 240 242 244 244 242 240 238 237 236 236 236 235 235 234 235
304 304 304 304 305 305 305 304 304 304 303 302 299 298 296 295 293 292 292 290 289 287 286 286 286 285 283 280 278 274 271 269 266 262 258 257 255 253 251 250 249 248 248 247 246 246 246 244 243 242 240 239 238 237 237 238 239 239 238 238 238 238 236 236 236 237 237 238 239 239 240 241 243 244 243 241 240 238 237 236 236 236 236 235 234
305 304 305 305 305 305 305 304 303 303 301 299 298 297 296 294 293 292 291 290 288 287 287 288 288 287 284 280 277 272 269 267 264 260 258 259 258 255 252 251 250 250 249 248 247 247 246 245 243 242 240 238 237 237 236 236 237 238 238 237 237 237 236 235 233 234 235 236 238 239 241 242 243 245 245 244 242 240 238 236 236 237 236 235 233
305 305 306 306 306 305 304 303 302 301 300 299 298 297 296 295 294 294 293 291 289 288 289 291 290 288 285 279 275 271 268 267 264 260 258 257 256 255 254 253 253 252 251 250 249 249 248 247 245 243 241 238 236 235 235 234 234 236 237 238 236 235 236 235 233 232 233 235 236 237 238 240 241 243 245 245 244 241 240 238 237 236 235 234 233
308 307 307 307 306 304 304 303 303 302 301 300 299 297 296 296 295 294 292 291 290 289 290 292 290 285 280 276 273 269 267 266 263 260 256 253 253 253 254 254 253 253 253 252 251 251 251 249 247 246 243 241 238 235 234 233 232 233 234 236 237 235 234 235 234 232 231 233 235 236 237 238 239 241 243 245 245 243 242 240 239 237 235 233 232
309 308 308 307 306 305 305 305 304 303 303 302 299 297 297 296 293 290 288 287 287 287 287 285 282 279 276 275 272 269 266 265 262 259 254 251 252 252 252 253 253 253 253 254 253 252 252 250 249 247 245 243 241 238 236 234 232 231 232 233 235 236 234 234 234 233 231 231 233 235 237 238 238 239 240 243 245 244 243 242 240 239 237 234 232
309 308 308 308 308 307 307 307 306 305 305 303 299 297 297 294 289 286 285 285 284 283 279 277 275 275 275 275 273 271 268 264 261 257 253 250 250 251 252 252 252 252 252 254 255 255 254 252 251 249 247 245 243 241 238 236 234 233 232 232 233 234 235 234 233 233 232 231 231 232 235 237 238 238 239 241 243 244 242 242 242 240 239 237 234
309 310 310 310 310 309 309 309 308 306 306 303 298 296 296 292 287 285 284 284 282 280 277 276 275 275 276 276 275 274 270 263 259 256 253 250 249 249 251 252 251 252 252 252 253 255 255 254 253 251 250 248 246 244 241 239 237 235 234 233 232 232 233 234 234 233 232 231 230 231 232 235 237 238 239 240 242 243 243 241 241 241 240 239 237
311 312 312 312 312 311 311 310 308 306 305 302 297 295 296 293 289 285 282 282 280 279 278 277 277 277 277 277 276 276 272 266 261 258 255 252 251 251 251 253 253 253 252 250 251 253 254 254 254 253 251 250 248 246 244 242 240 238 236 234 233 232 232 232 233 233 232 231 230 230 231 232 235 237 239 240 241 242 243 242 241 242 241 240 238
314 314 314 314 314 313 312 310 308 306 304 301 295 294 295 294 292 288 283 280 279 279 279 279 280 280 279 279 278 277 274 270 265 262 259 257 256 257 256 257 256 254 252 249 248 251 253 254 254 254 252 251 249 248 246 244 242 240 238 236 235 234 233 232 232 233 233 232 231 230 231 232 233 234 236 239 240 241 241 242 241 241 241 241 240
316 316 316 316 315 314 312 309 307 305 302 298 293 291 293 294 294 293 290 286 282 280 280 281 282 281 281 280 278 276 274 271 267 264 261 260 260 260 261 261 259 256 254 251 249 250 252 254 255 255 254 252 251 249 247 246 244 242 240 238 236 235 234 233 232 233 233 233 232 231 231 232 233 233 234 236 238 240 240 240 240 239 239 241 241
318 318 317 317 315 313 311 308 306 304 301 296 291 289 290 292 294 294 294 292 289 287 285 284 284 283 283 281 279 276 274 271 269 266 262 261 261 261 261 261 260 259 258 256 253 251 252 254 255 256 256 256 254 252 249 247 245 243 241 239 238 236 235 233 232 232 232 233 232 232 231 231 232 234 234 234 235 238 240 240 240 239 239 239 239
319 319 318 316 314 313 310 308 305 303 300 294 289 288 289 291 293 293 293 293 292 292 291 289 287 285 284 283 280 277 275 274 273 270 267 265 264 263 261 260 260 261 261 260 257 255 253 254 255 256 256 257 257 255 251 247 244 243 241 239 238 237 236 234 233 232 232 232 232 232 232 232 232 233 235 235 235 235 238 240 240 240 240 239 239
321 320 318 316 315 313 311 308 304 301 299 292 287 287 289 290 290 290 290 290 291 293 293 292 290 288 286 284 281 278 275 273 270 269 269 269 268 267 264 261 261 262 262 262 260 258 256 255 255 255 256 257 257 256 252 248 245 243 241 240 238 237 236 235 234 232 232 232 232 232 232 232 232 233 234 235 235 235 235 237 239 240 241 241 241
321 320 318 317 316 314 311 308 303 300 298 292 286 286 289 289 288 288 288 288 289 290 291 292 293 291 288 284 281 278 274 269 268 268 268 269 270 272 271 268 265 264 263 263 262 261 258 256 255 254 254 255 256 256 254 250 247 244 242 240 239 239 237 235 233 233 232 232 232 232 231 231 232 233 234 235 236 236 235 235 236 238 240 241 241
322 321 319 318 316 314 310 307 303 299 296 291 285 285 289 289 288 288 288 287 288 288 289 290 291 291 289 285 280 277 273 269 266 265 265 267 272 275 275 274 270 266 264 263 262 261 258 255 253 252 252 253 255 256 256 254 251 247 244 242 241 241 240 237 234 232 231 231 231 231 231 231 231 232 233 234 235 236 236 236 235 236 238 240 241
323 321 320 318 316 314 310 307 302 298 295 289 283 284 287 288 288 288 287 288 288 289 290 290 290 289 287 284 280 275 272 267 263 261 263 267 271 272 273 273 269 266 264 262 260 258 256 254 252 252 252 253 255 255 255 255 254 252 248 245 243 242 241 239 236 234 232 231 230 230 230 230 230 230 232 233 234 235 237 237 236 236 236 237 239
324 322 320 318 317 315 311 308 303 299 295 289 282 282 286 288 289 289 288 288 290 291 292 291 290 288 286 284 280 274 269 265 261 260 262 264 266 268 271 271 268 265 263 262 260 257 255 253 252 251 252 253 254 255 255 254 254 253 251 248 245 243 242 241 238 236 235 233 230 229 229 229 230 230 230 231 233 234 235 236 237 237 236 235 236
324 322 320 318 317 315 313 310 305 301 297 290 283 283 287 290 290 290 290 290 293 294 295 294 291 288 285 284 281 275 267 263 260 260 260 260 262 266 268 268 267 264 262 261 260 258 255 253 251 250 250 250 251 253 254 254 254 253 251 249 247 244 242 242 240 238 236 235 233 230 228 228 229 229 229 230 231 232 233 235 236 236 236 236 235
323 322 321 319 318 317 314 310 306 302 298 292 285 285 290 293 292 291 291 294 297 298 297 296 292 289 285 283 280 274 266 261 258 258 258 256 258 262 265 266 265 262 260 259 258 256 253 251 250 249 249 249 249 250 251 253 254 254 253 250 248 246 244 242 242 240 238 236 234 232 230 229 228 228 228 229 229 230 231 232 234 235 236 236 235
325 323 322 321 320 318 315 310 305 301 298 293 289 291 295 295 293 293 295 299 301 301 299 297 294 290 287 282 277 271 265 260 255 254 253 252 255 260 262 263 263 261 258 256 253 252 250 248 248 248 249 249 249 248 248 250 251 252 252 250 248 246 244 242 241 241 240 238 235 234 232 231 230 228 228 228 228 229 230 231 232 233 234 235 235
327 325 324 323 322 321 317 311 306 301 297 293 293 296 297 295 294 297 302 305 305 304 302 301 298 294 289 283 276 268 263 258 251 247 248 249 252 258 261 262 263 262 259 254 251 250 249 249 248 248 248 250 251 250 248 248 248 249 249 248 246 245 243 242 241 240 240 239 237 234 232 231 231 230 229 229 229 229 229 230 231 232 233 234 235
329 327 326 325 324 323 319 313 309 305 299 297 298 300 298 298 301 307 309 310 309 309 308 305 302 297 291 283 274 264 258 254 247 242 243 249 254 259 263 264 263 261 258 254 251 249 249 248 248 248 248 248 249 250 250 249 248 247 246 246 244 243 241 240 240 240 240 240 239 237 234 232 231 230 230 229 229 229 230 230 230 231 232 233 234
331 329 328 327 326 324 320 316 313 310 305 305 305 303 303 307 312 314 315 316 316 315 314 311 307 302 297 286 271 257 251 249 243 239 241 248 254 260 264 264 262 259 256 253 250 248 248 248 248 248 248 247 246 247 248 248 247 246 245 244 243 242 241 239 239 240 240 241 240 239 237 235 232 230 230 229 229 229 229 229 229 230 231 232 233
333 332 331 330 329 325 321 320 320 318 317 315 312 311 314 319 321 321 322 324 324 322 321 318 314 310 304 289 265 249 243 242 240 240 241 246 253 261 264 263 260 256 253 251 249 249 249 250 251 251 250 250 248 246 245 246 246 246 245 245 243 242 241 240 239 238 239 240 240 240 238 238 236 233 231 230 230 229 229 229 229 229 230 231 232
334 334 333 333 332 328 326 326 326 326 325 322 319 320 324 327 328 329 331 331 331 331 331 328 324 322 317 298 263 243 236 235 237 240 242 246 253 260 261 258 255 254 252 250 250 251 252 254 256 256 256 254 251 248 245 243 243 244 245 245 245 244 243 242 241 240 239 239 240 240 239 239 238 236 234 232 231 230 230 230 229 229 229 230 231
335 335 336 338 337 334 335 335 333 332 329 327 327 330 334 335 335 338 341 341 341 343 345 346 348 352 355 356 322 228 225 229 234 238 242 246 252 255 255 254 255 254 252 251 252 254 257 259 260 259 257 254 251 247 245 242 240 239 240 241 242 242 242 242 242 242 241 241 241 241 242 242 242 241 239 237 234 233 232 232 232 231 231 230 231
337 337 340 343 344 344 346 345 339 335 333 332 335 339 341 342 345 349 352 352 354 359 3 9 21 34 45 54 63 74 112 200 222 231 237 242 245 248 249 251 253 253 253 255 257 259 261 262 262 262 259 256 252 247 243 239 237 235 234 236 239 241 242 242 242 242 241 240 241 241 240 241 242 243 243 242 241 239 236 234 234 233 233 232 232
340 342 345 347 350 351 350 346 340 336 335 337 341 346 347 349 354 359 360 1 5 12 16 23 33 43 50 55 61 68 83 130 194 215 226 234 240 245 248 251 253 254 256 259 261 264 267 268 267 266 264 261 258 253 246 240 236 232 230 233 236 240 242 243 243 242 240 239 239 240 239 238 238 239 240 241 242 242 240 239 237 236 234 233 233
346 350 354 354 353 352 347 342 339 338 341 345 350 352 354 357 1 2 2 4 10 17 22 26 32 38 43 49 55 61 70 87 130 194 216 229 237 242 246 249 251 254 258 263 267 269 270 270 268 266 265 264 263 260 255 250 244 239 237 237 239 242 244 245 246 245 243 241 241 241 241 240 239 239 238 239 240 241 241 241 240 240 238 236 234
357 360 2 359 354 349 342 339 341 345 350 355 357 359 2 3 4 3 2 6 14 19 23 27 32 37 41 46 51 58 65 78 97 131 170 196 216 231 248 260 270 277 279 277 272 268 263 259 256 256 259 260 257 254 252 250 247 246 246 246 247 248 249 249 249 249 248 247 245 244 243 242 241 240 240 239 239 239 240 240 240 240 240 239 238
8 6 3 356 349 344 341 344 351 357 360 2 3 5 7 8 6 4 6 14 21 24 28 33 38 42 47 52 56 63 68 73 78 79 79 79 77 71 59 40 22 12 357 298 201 179 169 169 168 166 164 170 182 197 216 230 239 244 246 247 249 249 249 248 248 248 248 248 247 246 245 244 243 242 241 241 240 240 240 239 239 240 240 240 240
9 3 357 350 346 346 351 359 4 4 4 7 10 11 11 11 9 9 16 27 34 36 39 42 45 48 52 55 58 61 63 65 69 75 82 88 92 94 95 93 91 92 93 96 103 110 124 130 123 121 127 132 132 135 155 203 244 261 264 262 260 259 256 254 253 253 253 252 251 249 247 245 243 241 240 240 240 240 240 240 240 241 241 241 242
2 356 354 353 354 359 4 7 6 6 10 15 17 17 15 13 13 19 31 39 41 41 41 41 42 44 46 50 55 61 69 78 87 93 95 94 93 91 89 87 86 86 83 80 79 97 188 203 195 185 179 177 174 182 239 281 296 295 292 286 278 272 266 260 255 254 254 254 253 252 250 246 242 239 237 237 238 239 240 241 242 242 242 243 243
359 357 359 2 4 6 7 7 8 12 19 21 21 20 18 17 21 31 40 40 39 38 37 37 37 39 44 54 66 81 92 96 97 96 93 91 88 86 84 83 82 82 79 77 74 138 227 220 219 222 228 236 251 269 288 305 311 307 301 296 288 280 273 264 254 246 245 248 249 250 250 248 243 239 238 238 238 238 240 241 241 241 241 242 243
2 3 6 8 8 7 7 9 15 22 26 24 22 21 19 22 32 40 40 36 34 33 34 38 44 51 60 72 85 95 99 99 97 93 90 87 84 81 77 75 71 67 62 52 36 8 313 263 235 236 257 278 283 279 294 316 317 307 303 304 296 283 274 268 256 241 237 246 253 251 249 245 241 237 235 234 234 233 234 236 236 237 238 240 242
6 8 9 9 8 8 12 18 26 30 28 24 21 20 23 30 38 40 36 31 29 32 40 50 62 71 78 87 96 99 98 95 91 87 84 80 77 74 71 67 62 55 48 38 27 16 353 314 293 294 302 305 289 272 295 320 315 294 295 320 319 298 277 264 248 232 229 241 252 250 246 242 236 232 228 226 226 227 230 233 236 237 238 238 240
9 11 12 11 12 15 22 28 33 32 28 23 20 23 30 36 36 33 29 26 30 44 60 70 77 82 86 92 98 97 93 88 83 78 75 73 70 68 64 59 54 47 38 26 15 8 0 344 311 302 304 301 277 275 308 319 308 284 294 330 340 330 299 249 223 217 224 237 242 237 235 233 227 224 223 224 226 230 235 239 241 241 239 238 241
12 14 15 17 19 24 29 33 34 31 27 25 26 30 35 33 28 24 22 25 43 69 82 85 84 84 86 91 93 92 87 80 73 70 69 67 62 58 51 45 43 40 32 20 10 4 3 7 11 8 3 6 9 345 327 322 309 299 320 339 346 354 12 89 165 180 192 202 206 206 208 211 215 220 225 230 234 238 243 246 244 240 239 241 245
13 16 19 22 25 28 32 34 33 32 31 31 33 34 32 25 21 21 25 40 69 88 93 90 84 79 79 82 85 86 81 73 68 67 64 58 53 47 40 38 40 38 30 27 27 23 19 26 37 45 48 44 29 10 354 349 340 337 352 360 359 8 39 75 107 129 146 161 176 192 204 214 223 229 233 238 243 246 246 245 242 239 239 242 245
15 18 22 25 28 30 32 34 34 34 35 36 36 33 28 24 24 31 45 65 83 94 97 90 80 74 71 70 73 77 76 71 68 65 58 51 47 41 36 38 45 53 58 55 51 45 42 49 58 58 54 49 41 35 38 45 40 16 9 18 32 46 51 70 102 130 164 183 192 203 212 216 215 213 214 221 231 237 237 234 232 231 232 236 240
15 19 23 26 29 30 32 34 34 36 37 37 35 32 29 30 38 52 67 77 84 91 94 88 78 70 63 59 63 71 75 73 68 61 52 45 40 36 34 35 41 55 65 65 63 60 57 61 64 58 52 50 50 50 54 57 54 43 33 36 52 72 80 87 96 108 154 190 192 191 195 196 193 192 198 202 205 216 225 219 211 208 207 207 206
15 19 22 26 28 30 31 32 33 34 35 34 32 31 34 42 55 67 72 74 78 82 84 80 71 61 54 53 59 67 70 67 60 53 45 38 33 31 30 29 35 52 61 62 63 61 56 58 62 58 51 49 52 58 61 61 58 55 50 49 51 53 64 87 95 81 73 97 138 160 171 186 197 205 214 210 193 183 183 178 171 164 158 155 152